Regional Weather Roundup
Issued by NWS Northern Indiana

Home | Current Version | Previous Version | Graphics & Text | Print | Product List | Glossary On
Versions: 1 2 3 4 5 6 7 8 9 10 11 12 13 14 15 16 17 18 19 20 21 22 23 24 25 26 27 28 29 30 31 32 33 34 35 36 37 38 39 40 41 42 43 44 45 46 47 48 49 50
000
ASUS43 KIWX 020500
RWRIWX

KIWX WEATHER ROUNDUP
NATIONAL WEATHER SERVICE NORTHERN INDIANA
100 AM EDT THU JUL 02 2015

NOTE: "FAIR" INDICATES FEW OR NO CLOUDS BELOW 12,000 FEET WITH NO
SIGNIFICANT WEATHER AND/OR OBSTRUCTIONS TO VISIBILITY.

* THESE STATIONS ARE NOT UNDER NWS QUALITY CONTROL. THEY ALSO MAY NOT
  REPORT WEATHER SUCH AS PRECIPITATION OR FOG.

INZ001>027-020600-
NORTHERN INDIANA

CITY           SKY/WX    TMP DP  RH WIND       PRES   REMARKS
SOUTH BEND     MOCLDY    56  53  90 CALM      29.99S
GOSHEN         MOCLDY    56  52  86 NW5       29.98S
ANGOLA*          N/A     57  48  72 CALM      29.97R
FORT WAYNE     MOCLDY    59  55  87 N6        29.97S

$$
INZ028>050-020600-
CENTRAL INDIANA

CITY           SKY/WX    TMP DP  RH WIND       PRES   REMARKS
LAFAYETTE      CLOUDY    60  51  72 NE5       29.96S
KOKOMO*        MOCLDY    61  54  77 NE7       29.96F
MUNCIE*        MOCLDY    65  59  81 N6        29.95S
INDIANAPOLIS   CLOUDY    68  60  75 NE9       29.91F

$$
MIZ043>046-050>051-056>058-064>065-071>073-077>080-020600-
SOUTHWEST LOWER MICHIGAN

CITY           SKY/WX    TMP DP  RH WIND       PRES   REMARKS
BATTLE CREEK   CLEAR     56  52  86 NW3       29.98S
BENTON HARBOR  PTCLDY    54  52  93 NE3       29.98S
COLDWATER*     MOCLDY    56  54  93 CALM      29.97S
HILLSDALE*     MOCLDY    58  58  97 CALM      29.98R
HOLLAND        CLEAR     56  52  86 N3        30.00S
GRAND RAPIDS   CLEAR     55  53  93 N6        29.99S
KALAMAZOO      PTCLDY    54  51  90 N5        29.98S
STURGIS*       MOCLDY    55  54  94 CALM      29.98R
THREE RIVERS*  FAIR      56  53  88 CALM      29.98S

$$
OHZ001>008-015>018-024>025-020600-
NORTHWEST OHIO

CITY           SKY/WX    TMP DP  RH WIND       PRES   REMARKS
DEFIANCE       CLOUDY    62  55  77 CALM      29.96R
FINDLAY        MOCLDY    64  59  83 CALM      29.94R
TOLEDO EXPRESS CLOUDY    62  57  83 N5        29.95R
TOLEDO METCALF CLOUDY    66  57  72 NE6       29.96R
LIMA           MOCLDY    63  59  87 N3        29.95S

$$
AND FOR LAKE MICHIGAN COASTAL AND OPEN LAKE BUOY OBSERVATIONS

STATION/POSITION TEMP    WIND        PRES    VSBY  WAVE
                 AIR SEA DIR/SP/G                  HT/PER
                 (F)     (DEG/KT/KT) (MB)    (MI)  (FT/S)
CALUMET HARBOR    56     350/  7/  9   N/A
MICHIGAN CITY     58     340/ 11/ 13   N/A
BURNS HARBOR      58      10/  9/ 11 1016.3S
SAINT JOSEPH      57      20/  3/ 10   N/A
4 MI NW BRIDGMAN  60 63                N/A           3/ 5
MICHIGAN CITY     58 64  360/ 10/ 14   N/A           3/ 5

$$
&&



USA.gov is the U.S. government's official web portal to all federal, state and local government web resources and services.